When you browse on this site, cookies collect data to enhance your experience and personalize the content and advertising you see.
Visit our Privacy Policy to learn more. By continuing to use the site, you agree to this use of cookies and data.
  • Em Portugal
  • Lista de países
  • Para 7 dias
  • Temperatura da água
  • Mapas de satélite
  • Mapa do tempo
  • Widgets de tempo
  • user-avatar
    Iniciar Sessão

    Previsão horária em Galway

    Hoje, 18 Janeiro, Sexta-feira

    Tempo Temperatura Precipitação Vento Pressão Humidade
    00:00 +1°C° 0.3 mm 8 m/s 755 mmHg 80%
    01:00 +1°C° 0.3 mm 8 m/s 754 mmHg 84%
    02:00 +2°C° 0.3 mm 9 m/s 753 mmHg 88%
    03:00 +3°C° 0.1 mm 7 m/s 753 mmHg 91%
    04:00 +3°C° 0.1 mm 6 m/s 752 mmHg 93%
    05:00 +5°C° 0 mm 4 m/s 752 mmHg 96%
    06:00 +4°C° 0 mm 4 m/s 752 mmHg 96%
    07:00 +4°C° 0 mm 4 m/s 751 mmHg 95%
    08:00 +4°C° 0 mm 3 m/s 751 mmHg 95%
    09:00 +5°C° 0.1 mm 4 m/s 751 mmHg 93%
    10:00 +6°C° 0.1 mm 4 m/s 751 mmHg 91%
    11:00 +7°C° 0 mm 4 m/s 751 mmHg 90%
    12:00 +7°C° 0.1 mm 4 m/s 751 mmHg 90%
    13:00 +7°C° 0.1 mm 4 m/s 751 mmHg 91%
    14:00 +7°C° 0.1 mm 4 m/s 751 mmHg 91%
    15:00 +7°C° 0.4 mm 4 m/s 750 mmHg 93%
    16:00 +6°C° 0.4 mm 4 m/s 750 mmHg 95%
    17:00 +6°C° 0.4 mm 4 m/s 750 mmHg 96%
    18:00 +7°C° 0.3 mm 3 m/s 750 mmHg 96%
    19:00 +7°C° 0.3 mm 3 m/s 750 mmHg 96%
    20:00 +5°C° 0.3 mm 3 m/s 750 mmHg 96%
    21:00 +5°C° 0.1 mm 3 m/s 750 mmHg 95%
    22:00 +6°C° 0.1 mm 2 m/s 750 mmHg 95%
    23:00 +6°C° 0.1 mm 2 m/s 750 mmHg 94%

    Amanhã, 19 Janeiro, Sábado

    Tempo Temperatura Precipitação Vento Pressão Humidade
    00:00 +6°C° 0 mm 2 m/s 750 mmHg 94%
    01:00 +6°C° 0 mm 2 m/s 750 mmHg 94%
    02:00 +5°C° 0 mm 2 m/s 751 mmHg 94%
    03:00 +6°C° 0 mm 1 m/s 751 mmHg 94%
    04:00 +6°C° 0 mm 1 m/s 751 mmHg 94%
    05:00 +6°C° 0 mm 1 m/s 751 mmHg 94%
    06:00 +6°C° 0 mm 1 m/s 751 mmHg 94%
    07:00 +5°C° 0 mm 0 m/s 752 mmHg 94%
    08:00 +4°C° 0 mm 0 m/s 752 mmHg 95%
    09:00 +6°C° 0 mm 1 m/s 752 mmHg 93%
    10:00 +7°C° 0 mm 1 m/s 753 mmHg 92%
    11:00 +8°C° 0 mm 1 m/s 753 mmHg 91%
    12:00 +8°C° 0 mm 1 m/s 753 mmHg 91%
    13:00 +9°C° 0 mm 1 m/s 753 mmHg 91%
    14:00 +9°C° 0 mm 1 m/s 753 mmHg 91%
    15:00 +8°C° 0 mm 1 m/s 754 mmHg 92%
    16:00 +8°C° 0 mm 1 m/s 755 mmHg 94%
    17:00 +7°C° 0 mm 1 m/s 755 mmHg 95%
    18:00 +7°C° 0 mm 1 m/s 756 mmHg 95%
    19:00 +7°C° 0 mm 1 m/s 756 mmHg 95%
    20:00 +6°C° 0 mm 2 m/s 757 mmHg 96%
    21:00 +6°C° 0 mm 2 m/s 758 mmHg 95%
    22:00 +5°C° 0 mm 3 m/s 758 mmHg 93%
    23:00 +5°C° 0 mm 3 m/s 759 mmHg 92%

    Depois de amanhã, 20 Janeiro, Domingo

    Tempo Temperatura Precipitação Vento Pressão Humidade
    00:00 +6°C° 0.1 mm 4 m/s 760 mmHg 91%
    01:00 +5°C° 0.1 mm 6 m/s 760 mmHg 90%
    02:00 +5°C° 0.1 mm 8 m/s 761 mmHg 89%
    03:00 +4°C° 0 mm 8 m/s 762 mmHg 88%
    04:00 +4°C° 0 mm 7 m/s 762 mmHg 87%
    05:00 +4°C° 0 mm 7 m/s 763 mmHg 86%
    06:00 +3°C° 0 mm 7 m/s 764 mmHg 85%
    07:00 +2°C° 0 mm 6 m/s 765 mmHg 85%
    08:00 +2°C° 0 mm 6 m/s 766 mmHg 85%
    09:00 +3°C° 0 mm 6 m/s 767 mmHg 81%
    10:00 +3°C° 0 mm 6 m/s 768 mmHg 77%
    11:00 +4°C° 0 mm 6 m/s 768 mmHg 73%
    12:00 +5°C° 0 mm 5 m/s 769 mmHg 73%
    13:00 +5°C° 0 mm 5 m/s 769 mmHg 73%
    14:00 +5°C° 0 mm 4 m/s 769 mmHg 73%
    15:00 +4°C° 0 mm 3 m/s 770 mmHg 76%
    16:00 +3°C° 0 mm 3 m/s 770 mmHg 79%
    17:00 +3°C° 0 mm 2 m/s 771 mmHg 82%
    18:00 +3°C° 0 mm 2 m/s 771 mmHg 83%
    19:00 +3°C° 0 mm 1 m/s 771 mmHg 83%
    20:00 +3°C° 0 mm 1 m/s 772 mmHg 84%
    21:00 +3°C° 0 mm 1 m/s 771 mmHg 82%
    22:00 +3°C° 0 mm 1 m/s 771 mmHg 81%
    23:00 +3°C° 0 mm 1 m/s 771 mmHg 80%

    21 Janeiro, Segunda-feira

    Tempo Temperatura Precipitação Vento Pressão Humidade
    00:00 +2°C° 0 mm 2 m/s 771 mmHg 81%
    01:00 +1°C° 0 mm 3 m/s 770 mmHg 82%
    02:00 +1°C° 0 mm 4 m/s 769 mmHg 82%
    03:00 +1°C° 0 mm 4 m/s 769 mmHg 82%
    04:00 +2°C° 0 mm 5 m/s 768 mmHg 82%
    05:00 +2°C° 0 mm 5 m/s 768 mmHg 81%
    06:00 +3°C° 0 mm 6 m/s 767 mmHg 81%
    07:00 +3°C° 0 mm 7 m/s 766 mmHg 81%
    08:00 +2°C° 0 mm 8 m/s 765 mmHg 80%
    09:00 +3°C° 0.1 mm 9 m/s 763 mmHg 80%
    10:00 +3°C° 0.1 mm 10 m/s 761 mmHg 79%
    11:00 +4°C° 0.1 mm 11 m/s 759 mmHg 78%
    12:00 +4°C° 2.7 mm 11 m/s 758 mmHg 81%
    13:00 +4°C° 2.7 mm 11 m/s 757 mmHg 84%
    14:00 +3°C° 2.7 mm 10 m/s 756 mmHg 87%
    15:00 +2°C° 0.3 mm 9 m/s 756 mmHg 82%
    16:00 +1°C° 0.3 mm 9 m/s 757 mmHg 78%
    17:00 0°C° 0.3 mm 8 m/s 757 mmHg 73%
    18:00 0°C° 0.3 mm 9 m/s 756 mmHg 73%
    19:00 0°C° 0.3 mm 9 m/s 756 mmHg 72%
    20:00 0°C° 0.3 mm 10 m/s 756 mmHg 72%
    21:00 0°C° 0.6 mm 10 m/s 756 mmHg 73%
    22:00 0°C° 0.6 mm 10 m/s 755 mmHg 73%
    23:00 0°C° 0.6 mm 10 m/s 755 mmHg 74%

    22 Janeiro, Terça-feira

    Tempo Temperatura Precipitação Vento Pressão Humidade
    00:00 0°C° 0.3 mm 9 m/s 755 mmHg 76%
    01:00 -1°C° 0.3 mm 9 m/s 755 mmHg 77%
    02:00 -1°C° 0.3 mm 8 m/s 755 mmHg 79%
    03:00 -1°C° 0.3 mm 8 m/s 755 mmHg 78%
    04:00 -1°C° 0.3 mm 8 m/s 754 mmHg 78%
    05:00 -1°C° 0.3 mm 8 m/s 754 mmHg 78%
    06:00 -1°C° 0.3 mm 8 m/s 754 mmHg 79%
    07:00 -1°C° 0.3 mm 7 m/s 754 mmHg 81%
    08:00 -1°C° 0.3 mm 6 m/s 754 mmHg 82%
    09:00 -1°C° 0.4 mm 7 m/s 754 mmHg 83%
    10:00 -1°C° 0.4 mm 7 m/s 754 mmHg 84%
    11:00 0°C° 0.4 mm 7 m/s 754 mmHg 85%
    12:00 0°C° 0.2 mm 7 m/s 754 mmHg 85%
    13:00 +1°C° 0.2 mm 6 m/s 753 mmHg 85%
    14:00 +1°C° 0.2 mm 6 m/s 753 mmHg 85%
    15:00 +1°C° 0.2 mm 6 m/s 753 mmHg 86%
    16:00 +1°C° 0.2 mm 5 m/s 753 mmHg 86%
    17:00 +1°C° 0.2 mm 5 m/s 753 mmHg 87%
    18:00 0°C° 0.1 mm 5 m/s 753 mmHg 86%
    19:00 0°C° 0.1 mm 5 m/s 753 mmHg 86%
    20:00 0°C° 0.1 mm 5 m/s 753 mmHg 86%
    21:00 0°C° 0 mm 5 m/s 753 mmHg 85%
    22:00 0°C° 0 mm 5 m/s 753 mmHg 84%
    23:00 0°C° 0 mm 5 m/s 753 mmHg 83%

    23 Janeiro, Quarta-feira

    Tempo Temperatura Precipitação Vento Pressão Humidade
    00:00 0°C° 0.1 mm 5 m/s 753 mmHg 84%
    01:00 -1°C° 0.1 mm 6 m/s 754 mmHg 85%
    02:00 +1°C° 0.1 mm 6 m/s 754 mmHg 86%
    03:00 +1°C° 0.1 mm 6 m/s 754 mmHg 85%
    04:00 +1°C° 0.1 mm 6 m/s 754 mmHg 84%
    05:00 +1°C° 0.1 mm 6 m/s 754 mmHg 83%
    06:00 +1°C° 0 mm 6 m/s 754 mmHg 83%
    07:00 +1°C° 0 mm 6 m/s 755 mmHg 84%
    08:00 +1°C° 0 mm 6 m/s 755 mmHg 84%
    09:00 +1°C° 0 mm 5 m/s 755 mmHg 84%
    10:00 +2°C° 0 mm 5 m/s 756 mmHg 83%
    11:00 +3°C° 0 mm 5 m/s 756 mmHg 83%
    12:00 +3°C° 0 mm 5 m/s 756 mmHg 83%
    13:00 +3°C° 0 mm 5 m/s 756 mmHg 82%
    14:00 +3°C° 0 mm 5 m/s 756 mmHg 82%
    15:00 +3°C° 0 mm 6 m/s 756 mmHg 82%
    16:00 +2°C° 0 mm 6 m/s 756 mmHg 83%
    17:00 +1°C° 0 mm 6 m/s 756 mmHg 83%
    18:00 +2°C° 0 mm 7 m/s 756 mmHg 82%
    19:00 +2°C° 0 mm 7 m/s 757 mmHg 82%
    20:00 +1°C° 0 mm 8 m/s 757 mmHg 81%
    21:00 0°C° 0 mm 7 m/s 758 mmHg 83%
    22:00 0°C° 0 mm 7 m/s 759 mmHg 84%
    23:00 -1°C° 0 mm 6 m/s 760 mmHg 86%
    Mostrar mais